Location: Mexico
(19.4000°N, 99.1500°W)
Time: 15:37:35
(UTC-06:00)

ISS - Pass Details

Date: 05 August 2020
Orbit: 418 x 420 km, 51.6° (Epoch: 08 August)

Event Time Altitude Azimuth Distance (km) Brightness Sun altitude
Rises 20:15:43 0° 343° (NNW) 2,356 0.7 -15.2°
Reaches altitude 10° 20:18:26 10° 7° (N) 1,492 -0.7 -15.8°
Maximum altitude 20:20:33 16° 46° (NE) 1,195 -1.7 -16.3°
Enters shadow 20:20:42 16° 49° (NE) 1,196 -1.7 -16.3°
